When you browse on this site, cookies collect data to enhance your experience and personalize the content and advertising you see.
Visit our Privacy Policy to learn more. By continuing to use the site, you agree to this use of cookies and data.
  • In France
  • List of Countries
  • For 7 days
  • Water Temperature
  • Satellite Maps
  • Weather Map
  • Weather Widgets
  • user-avatar
    Login

    Hourly Weather Escuintla

    Today, 24 May, Friday

    Time Temperature Precipitation Wind Pressure Humidity
    00:00 +26°C° 1.2 mm 1 mps 728 mmHg 84%
    01:00 +26°C° 0.3 mm 1 mps 728 mmHg 83%
    02:00 +26°C° 0.3 mm 1 mps 728 mmHg 83%
    03:00 +26°C° 0.3 mm 2 mps 727 mmHg 82%
    04:00 +26°C° 0 mm 2 mps 727 mmHg 81%
    05:00 +26°C° 0 mm 2 mps 727 mmHg 80%
    06:00 +26°C° 0 mm 2 mps 727 mmHg 79%
    07:00 +28°C° 0 mm 1 mps 728 mmHg 71%
    08:00 +30°C° 0 mm 1 mps 728 mmHg 64%
    09:00 +33°C° 0 mm 1 mps 729 mmHg 56%
    10:00 +33°C° 0.6 mm 1 mps 729 mmHg 58%
    11:00 +33°C° 0.6 mm 1 mps 728 mmHg 59%
    12:00 +34°C° 0.6 mm 2 mps 728 mmHg 61%
    13:00 +32°C° 1.7 mm 2 mps 728 mmHg 65%
    14:00 +32°C° 1.7 mm 2 mps 727 mmHg 68%
    15:00 +31°C° 1.7 mm 1 mps 727 mmHg 72%
    16:00 +30°C° 1.5 mm 1 mps 727 mmHg 76%
    17:00 +29°C° 1.5 mm 1 mps 727 mmHg 80%
    18:00 +28°C° 1.5 mm 1 mps 727 mmHg 84%
    19:00 +28°C° 1.1 mm 1 mps 728 mmHg 85%
    20:00 +27°C° 1.1 mm 1 mps 728 mmHg 86%
    21:00 +27°C° 1.1 mm 1 mps 729 mmHg 87%
    22:00 +26°C° 0.3 mm 1 mps 729 mmHg 86%
    23:00 +26°C° 0.3 mm 1 mps 729 mmHg 85%

    Tomorrow, 25 May, Saturday

    Time Temperature Precipitation Wind Pressure Humidity
    00:00 +26°C° 0.3 mm 1 mps 729 mmHg 84%
    01:00 +26°C° 0.1 mm 1 mps 728 mmHg 83%
    02:00 +26°C° 0.1 mm 1 mps 728 mmHg 83%
    03:00 +25°C° 0.1 mm 1 mps 727 mmHg 82%
    04:00 +25°C° 0 mm 1 mps 727 mmHg 81%
    05:00 +25°C° 0 mm 2 mps 727 mmHg 80%
    06:00 +25°C° 0 mm 2 mps 728 mmHg 79%
    07:00 +28°C° 0 mm 1 mps 728 mmHg 71%
    08:00 +30°C° 0 mm 1 mps 728 mmHg 62%
    09:00 +33°C° 0 mm 1 mps 729 mmHg 54%
    10:00 +33°C° 0.2 mm 1 mps 729 mmHg 55%
    11:00 +35°C° 0.2 mm 2 mps 728 mmHg 55%
    12:00 +35°C° 0.2 mm 2 mps 728 mmHg 56%
    13:00 +35°C° 1 mm 2 mps 728 mmHg 58%
    14:00 +34°C° 1 mm 2 mps 727 mmHg 61%
    15:00 +34°C° 1 mm 2 mps 726 mmHg 63%
    16:00 +32°C° 2 mm 2 mps 726 mmHg 70%
    17:00 +30°C° 2 mm 1 mps 726 mmHg 77%
    18:00 +29°C° 2 mm 1 mps 726 mmHg 83%
    19:00 +28°C° 1.4 mm 1 mps 727 mmHg 84%
    20:00 +27°C° 1.4 mm 1 mps 728 mmHg 85%
    21:00 +26°C° 1.4 mm 1 mps 729 mmHg 85%
    22:00 +26°C° 0.2 mm 1 mps 729 mmHg 84%
    23:00 +26°C° 0.2 mm 2 mps 729 mmHg 83%

    Day after tomorrow, 26 May, Sunday

    Time Temperature Precipitation Wind Pressure Humidity
    00:00 +26°C° 0.2 mm 2 mps 729 mmHg 82%
    01:00 +25°C° 0 mm 2 mps 728 mmHg 81%
    02:00 +25°C° 0 mm 2 mps 727 mmHg 80%
    03:00 +25°C° 0 mm 2 mps 727 mmHg 79%
    04:00 +25°C° 0 mm 2 mps 727 mmHg 78%
    05:00 +25°C° 0 mm 2 mps 727 mmHg 77%
    06:00 +25°C° 0 mm 2 mps 727 mmHg 76%
    07:00 +28°C° 0 mm 2 mps 728 mmHg 67%
    08:00 +31°C° 0 mm 1 mps 728 mmHg 58%
    09:00 +33°C° 0 mm 1 mps 729 mmHg 50%
    10:00 +34°C° 0 mm 1 mps 729 mmHg 48%
    11:00 +36°C° 0 mm 2 mps 729 mmHg 45%
    12:00 +37°C° 0 mm 2 mps 728 mmHg 43%
    13:00 +36°C° 0.3 mm 2 mps 728 mmHg 48%
    14:00 +35°C° 0.3 mm 2 mps 727 mmHg 53%
    15:00 +35°C° 0.3 mm 2 mps 726 mmHg 58%
    16:00 +32°C° 1.9 mm 2 mps 726 mmHg 66%
    17:00 +31°C° 1.9 mm 1 mps 726 mmHg 74%
    18:00 +29°C° 1.9 mm 1 mps 727 mmHg 81%
    19:00 +28°C° 1.5 mm 1 mps 727 mmHg 82%
    20:00 +27°C° 1.5 mm 1 mps 728 mmHg 83%
    21:00 +26°C° 1.5 mm 1 mps 729 mmHg 84%
    22:00 +26°C° 0.3 mm 1 mps 729 mmHg 83%
    23:00 +26°C° 0.3 mm 1 mps 729 mmHg 82%

    27 May, Monday

    Time Temperature Precipitation Wind Pressure Humidity
    00:00 +26°C° 0.3 mm 2 mps 729 mmHg 81%
    01:00 +25°C° 0 mm 2 mps 728 mmHg 80%
    02:00 +25°C° 0 mm 2 mps 727 mmHg 79%
    03:00 +25°C° 0 mm 2 mps 727 mmHg 78%
    04:00 +25°C° 0 mm 2 mps 727 mmHg 77%
    05:00 +25°C° 0 mm 2 mps 727 mmHg 75%
    06:00 +25°C° 0 mm 2 mps 727 mmHg 74%
    07:00 +28°C° 0 mm 1 mps 728 mmHg 67%
    08:00 +30°C° 0 mm 1 mps 728 mmHg 59%
    09:00 +33°C° 0 mm 1 mps 729 mmHg 51%
    10:00 +33°C° 0 mm 1 mps 728 mmHg 51%
    11:00 +35°C° 0 mm 2 mps 728 mmHg 51%
    12:00 +36°C° 0 mm 2 mps 727 mmHg 51%
    13:00 +35°C° 0.8 mm 2 mps 727 mmHg 55%
    14:00 +35°C° 0.8 mm 2 mps 726 mmHg 59%
    15:00 +34°C° 0.8 mm 2 mps 725 mmHg 63%
    16:00 +32°C° 1 mm 2 mps 725 mmHg 68%
    17:00 +31°C° 1 mm 2 mps 726 mmHg 74%
    18:00 +29°C° 1 mm 1 mps 726 mmHg 79%
    19:00 +28°C° 1.4 mm 1 mps 727 mmHg 81%
    20:00 +28°C° 1.4 mm 1 mps 727 mmHg 83%
    21:00 +27°C° 1.4 mm 1 mps 728 mmHg 85%
    22:00 +26°C° 0.8 mm 1 mps 728 mmHg 84%
    23:00 +26°C° 0.8 mm 1 mps 728 mmHg 84%

    28 May, Tuesday

    Time Temperature Precipitation Wind Pressure Humidity
    00:00 +26°C° 0.8 mm 1 mps 728 mmHg 83%
    01:00 +25°C° 0 mm 1 mps 727 mmHg 82%
    02:00 +25°C° 0 mm 1 mps 726 mmHg 81%
    03:00 +25°C° 0 mm 1 mps 726 mmHg 80%
    04:00 +25°C° 0 mm 1 mps 726 mmHg 79%
    05:00 +25°C° 0 mm 1 mps 726 mmHg 78%
    06:00 +25°C° 0 mm 1 mps 726 mmHg 76%
    07:00 +28°C° 0 mm 1 mps 727 mmHg 69%
    08:00 +30°C° 0 mm 1 mps 727 mmHg 61%
    09:00 +33°C° 0 mm 1 mps 727 mmHg 54%
    10:00 +33°C° 0 mm 1 mps 727 mmHg 53%
    11:00 +35°C° 0 mm 2 mps 726 mmHg 52%
    12:00 +36°C° 0 mm 2 mps 726 mmHg 51%
    13:00 +35°C° 0.8 mm 2 mps 725 mmHg 57%
    14:00 +34°C° 0.8 mm 2 mps 725 mmHg 64%
    15:00 +32°C° 0.8 mm 2 mps 724 mmHg 71%
    16:00 +31°C° 0.9 mm 2 mps 724 mmHg 75%
    17:00 +30°C° 0.9 mm 1 mps 724 mmHg 80%
    18:00 +29°C° 0.9 mm 1 mps 725 mmHg 84%
    19:00 +28°C° 3.4 mm 1 mps 725 mmHg 86%
    20:00 +27°C° 3.4 mm 1 mps 726 mmHg 89%
    21:00 +27°C° 3.4 mm 1 mps 727 mmHg 91%
    22:00 +26°C° 0.6 mm 1 mps 726 mmHg 91%
    23:00 +26°C° 0.6 mm 1 mps 726 mmHg 90%

    29 May, Wednesday

    Time Temperature Precipitation Wind Pressure Humidity
    00:00 +26°C° 0.6 mm 1 mps 726 mmHg 89%
    01:00 +26°C° 0.1 mm 1 mps 726 mmHg 88%
    02:00 +26°C° 0.1 mm 1 mps 725 mmHg 88%
    03:00 +26°C° 0.1 mm 1 mps 725 mmHg 88%
    04:00 +26°C° 0 mm 1 mps 725 mmHg 87%
    05:00 +26°C° 0 mm 1 mps 725 mmHg 86%
    06:00 +26°C° 0 mm 1 mps 726 mmHg 85%
    07:00 +27°C° 0 mm 1 mps 726 mmHg 80%
    08:00 +29°C° 0 mm 1 mps 726 mmHg 75%
    09:00 +30°C° 0 mm 1 mps 727 mmHg 70%
    10:00 +31°C° 0.2 mm 1 mps 726 mmHg 68%
    11:00 +32°C° 0.2 mm 2 mps 726 mmHg 67%
    12:00 +32°C° 0.2 mm 2 mps 726 mmHg 65%
    13:00 +32°C° 0.5 mm 2 mps 725 mmHg 68%
    14:00 +32°C° 0.5 mm 2 mps 725 mmHg 70%
    15:00 +31°C° 0.5 mm 2 mps 724 mmHg 73%
    16:00 +30°C° 0.6 mm 1 mps 724 mmHg 78%
    17:00 +29°C° 0.6 mm 1 mps 725 mmHg 83%
    18:00 +28°C° 0.6 mm 1 mps 725 mmHg 87%
    19:00 +26°C° 1.5 mm 0 mps 725 mmHg 89%
    20:00 +25°C° 1.5 mm 0 mps 726 mmHg 90%
    21:00 +25°C° 1.5 mm 0 mps 726 mmHg 91%
    22:00 +25°C° 0.5 mm 0 mps 726 mmHg 91%
    23:00 +25°C° 0.5 mm 0 mps 726 mmHg 90%
    Show more